^^
Grace C. Lehan Memorial Weather Station Historical Data
Daily Summary for July 29, 2021 Units:  Metric    English   Both
Daily Weekly Monthly Yearly
  High: Low: Average:
Temperature: 18.2 °C 16.9 °C 17.2 °C
Dew Point: 16.9 °C 16.1 °C 16.3 °C
Humidity: 95.3% 92% 95%
Wind Speed: 0km/h 0km/h 0km/h
Wind Gust: 0km/h - -
Wind- -
Pressure: 1024.6 hPa 1022.9 hPa -
Precipitation: 0.51 mm    
 
 
Tabular Data for July 29, 2021
Time Temperature Dew Point Pressure Wind Wind Speed Wind Gust Humidity Rainfall Rate (Hourly) solar
00:09 17.6 °C 16.4 °C 1024.6 hPa Calm     93% 6.86 mm 0 W/m2
00:14 17.6 °C 16.4 °C 1024.6 hPa Calm     93% 6.86 mm 0 W/m2
00:19 17.6 °C 16.4 °C 1024.6 hPa Calm     93% 6.86 mm 0 W/m2
00:24 17.6 °C 16.6 °C 1024.6 hPa Calm     93.8% 6.86 mm 0 W/m2
00:29 17.6 °C 16.6 °C 1024.6 hPa Calm     94% 6.86 mm 0 W/m2
00:34 17.6 °C 16.6 °C 1024.6 hPa Calm     94% 6.86 mm 0 W/m2
00:39 17.6 °C 16.6 °C 1024.6 hPa Calm     94% 0 mm 0 W/m2
00:44 17.5 °C 16.5 °C 1024.6 hPa Calm     94% 0 mm 0 W/m2
00:49 17.4 °C 16.5 °C 1024.6 hPa Calm     94% 0 mm 0 W/m2
00:54 17.4 °C 16.4 °C 1024.6 hPa Calm     94% 0 mm 0 W/m2
00:59 17.4 °C 16.4 °C 1024.6 hPa Calm     94% 0 mm 0 W/m2
01:04 17.4 °C 16.4 °C 1024.6 hPa Calm     94% 0 mm 0 W/m2
01:09 17.4 °C 16.4 °C 1024.6 hPa Calm     94% 0 mm 0 W/m2
01:14 17.4 °C 16.4 °C 1024.6 hPa Calm     94% 0 mm 0 W/m2
01:19 17.4 °C 16.4 °C 1024.6 hPa Calm     94% 0 mm 0 W/m2
01:24 17.4 °C 16.5 °C 1024.6 hPa Calm     94% 0 mm 0 W/m2
01:29 17.4 °C 16.5 °C 1024.3 hPa Calm     94% 0 mm 0 W/m2
01:34 17.4 °C 16.4 °C 1024.3 hPa Calm     94% 0 mm 0 W/m2
01:39 17.4 °C 16.4 °C 1024.3 hPa Calm     94% 0 mm 0 W/m2
01:44 17.3 °C 16.4 °C 1024.3 hPa Calm     94% 0 mm 0 W/m2
01:49 17.3 °C 16.4 °C 1024.3 hPa Calm     94% 0 mm 0 W/m2
01:54 17.3 °C 16.3 °C 1024.3 hPa Calm     94% 0.51 mm 0 W/m2
01:59 17.3 °C 16.3 °C 1024.3 hPa Calm     94% 0.51 mm 0 W/m2
02:04 17.3 °C 16.3 °C 1024.3 hPa Calm     94% 0.51 mm 0 W/m2
02:09 17.3 °C 16.3 °C 1024.3 hPa Calm     94% 0.51 mm 0 W/m2
02:14 17.3 °C 16.3 °C 1024.3 hPa Calm     94% 0.51 mm 0 W/m2
02:19 17.3 °C 16.3 °C 1023.9 hPa Calm     94% 0.51 mm 0 W/m2
02:24 17.3 °C 16.3 °C 1023.9 hPa Calm     94% 0.51 mm 0 W/m2
02:29 17.3 °C 16.5 °C 1023.9 hPa Calm     95% 0.51 mm 0 W/m2
02:34 17.3 °C 16.5 °C 1023.9 hPa Calm     95% 0.51 mm 0 W/m2
02:39 17.3 °C 16.4 °C 1023.9 hPa Calm     95% 0.51 mm 0 W/m2
02:44 17.2 °C 16.4 °C 1023.6 hPa Calm     95% 0.51 mm 0 W/m2
02:49 17.2 °C 16.4 °C 1023.6 hPa Calm     95% 0.51 mm 0 W/m2
02:54 17.2 °C 16.4 °C 1023.9 hPa Calm     95% 0.51 mm 0 W/m2
02:59 17.2 °C 16.4 °C 1023.6 hPa Calm     95% 0.51 mm 0 W/m2
03:04 17.2 °C 16.4 °C 1023.6 hPa Calm     95% 0.51 mm 0 W/m2
03:09 17.2 °C 16.4 °C 1023.6 hPa Calm     95% 0 mm 0 W/m2
03:14 17.2 °C 16.4 °C 1023.6 hPa Calm     95% 0 mm 0 W/m2
03:19 17.3 °C 16.5 °C 1023.6 hPa Calm     95% 0 mm 0 W/m2
03:24 17.3 °C 16.5 °C 1023.6 hPa Calm     95% 0 mm 0 W/m2
03:29 17.3 °C 16.5 °C 1023.6 hPa Calm     95% 0 mm 0 W/m2
03:34 17.2 °C 16.4 °C 1023.6 hPa Calm     95% 0 mm 0 W/m2
03:39 17.2 °C 16.4 °C 1023.6 hPa Calm     95% 0 mm 0 W/m2
03:44 17.2 °C 16.4 °C 1023.6 hPa Calm     95% 0 mm 0 W/m2
03:49 17.2 °C 16.4 °C 1023.2 hPa Calm     95% 0 mm 0 W/m2
03:54 17.2 °C 16.4 °C 1023.2 hPa Calm     95% 0 mm 0 W/m2
03:59 17.2 °C 16.4 °C 1023.2 hPa Calm     95% 0 mm 0 W/m2
04:00 17.2 °C 16.4 °C 1023.2 hPa Calm     95% 0 mm 0 W/m2
04:09 17.2 °C 16.3 °C 1023.2 hPa Calm     95% 0 mm 0 W/m2
04:14 17.1 °C 16.3 °C 1023.2 hPa Calm     95% 0 mm 0 W/m2
04:19 17.1 °C 16.3 °C 1022.9 hPa Calm     95% 0 mm 0 W/m2
04:24 17.2 °C 16.3 °C 1022.9 hPa Calm     95% 0 mm 0 W/m2
04:29 17.2 °C 16.4 °C 1023.2 hPa Calm     95% 0 mm 0 W/m2
04:34 17.2 °C 16.4 °C 1023.2 hPa Calm     95% 0 mm 0 W/m2
04:39 17.2 °C 16.4 °C 1023.2 hPa Calm     95% 0 mm 0 W/m2
04:44 17.2 °C 16.4 °C 1022.9 hPa Calm     95% 0 mm 0 W/m2
04:49 17.2 °C 16.4 °C 1022.9 hPa Calm     95% 0 mm 0 W/m2
04:54 17.1 °C 16.3 °C 1022.9 hPa Calm     95% 0 mm 0 W/m2
04:59 17.1 °C 16.3 °C 1022.9 hPa Calm     95% 0 mm 0 W/m2
05:04 17.1 °C 16.2 °C 1022.9 hPa Calm     95% 0 mm 0 W/m2
05:09 17 °C 16.2 °C 1022.9 hPa Calm     95% 0 mm 0 W/m2
05:14 16.9 °C 16.2 °C 1022.9 hPa Calm     95% 0 mm 0 W/m2
05:19 16.9 °C 16.1 °C 1022.9 hPa Calm     95% 0 mm 0 W/m2
05:24 16.9 °C 16.1 °C 1022.9 hPa Calm     95% 0 mm 0 W/m2
05:29 17 °C 16.2 °C 1022.9 hPa Calm     95% 0 mm 0 W/m2
05:34 17 °C 16.2 °C 1022.9 hPa Calm     95% 0 mm 0 W/m2
05:39 17 °C 16.2 °C 1022.9 hPa Calm     95% 0 mm 0 W/m2
05:44 17 °C 16.2 °C 1023.2 hPa Calm     95% 0 mm 0 W/m2
05:49 17 °C 16.2 °C 1023.2 hPa Calm     95% 0 mm 0 W/m2
05:54 17 °C 16.2 °C 1023.2 hPa Calm     95% 0 mm 0 W/m2
05:59 17 °C 16.2 °C 1023.2 hPa Calm     95% 0 mm 0 W/m2
06:04 16.9 °C 16.2 °C 1023.2 hPa Calm     95% 0 mm 0 W/m2
06:09 16.9 °C 16.2 °C 1023.2 hPa Calm     95% 0 mm 0 W/m2
06:14 16.9 °C 16.1 °C 1023.2 hPa Calm     95% 0 mm 0 W/m2
06:19 16.9 °C 16.1 °C 1023.2 hPa Calm     95% 0 mm 0 W/m2
06:24 16.9 °C 16.1 °C 1023.2 hPa Calm     95% 0 mm 0 W/m2
06:29 16.9 °C 16.1 °C 1023.2 hPa Calm     95% 0 mm 0 W/m2
06:34 16.9 °C 16.1 °C 1023.2 hPa Calm     95% 0 mm 0 W/m2
06:39 16.9 °C 16.1 °C 1023.2 hPa Calm     95% 0 mm 5 W/m2
06:44 16.9 °C 16.1 °C 1023.2 hPa Calm     95% 0 mm 7 W/m2
06:49 16.9 °C 16.1 °C 1023.2 hPa Calm     95% 0 mm 9 W/m2
06:54 16.9 °C 16.1 °C 1023.2 hPa Calm     95% 0 mm 11 W/m2
06:59 17 °C 16.2 °C 1023.2 hPa Calm     95.3% 0 mm 12 W/m2
07:04 17 °C 16.2 °C 1023.2 hPa Calm     95% 0 mm 16 W/m2
07:09 17.1 °C 16.2 °C 1023.2 hPa Calm     95% 0 mm 18 W/m2
07:14 17.1 °C 16.3 °C 1023.2 hPa Calm     95% 0 mm 19 W/m2
07:19 17.1 °C 16.3 °C 1023.2 hPa Calm     95% 0 mm 23 W/m2
07:24 17.1 °C 16.3 °C 1023.2 hPa Calm     95% 0 mm 28 W/m2
07:29 17.1 °C 16.2 °C 1023.2 hPa Calm     95% 0 mm 30 W/m2
07:34 17 °C 16.2 °C 1023.2 hPa Calm     95% 0 mm 33 W/m2
07:39 17 °C 16.2 °C 1023.2 hPa Calm     95% 0 mm 35 W/m2
07:44 16.9 °C 16.2 °C 1023.2 hPa Calm     95% 0 mm 39 W/m2
07:49 16.9 °C 16.1 °C 1023.2 hPa Calm     95% 0 mm 44 W/m2
07:54 16.9 °C 16.1 °C 1023.2 hPa Calm     95% 0 mm 49 W/m2
07:59 16.9 °C 16.1 °C 1023.2 hPa Calm     95% 0 mm 42 W/m2
08:00 16.9 °C 16.2 °C 1023.2 hPa Calm     95% 0 mm 40 W/m2
08:09 17.1 °C 16.2 °C 1023.2 hPa Calm     95% 0 mm 39 W/m2
08:14 17.1 °C 16.3 °C 1023.2 hPa Calm     95% 0 mm 33 W/m2
08:19 17.2 °C 16.4 °C 1023.6 hPa Calm     95% 0 mm 35 W/m2
08:24 17.2 °C 16.4 °C 1023.6 hPa Calm     95% 0 mm 35 W/m2
08:29 17.2 °C 16.4 °C 1023.6 hPa Calm     95% 0 mm 40 W/m2
08:34 17.2 °C 16.4 °C 1023.2 hPa Calm     95% 0 mm 51 W/m2
08:39 17.2 °C 16.3 °C 1023.2 hPa Calm     94.6% 0 mm 67 W/m2
08:44 17.2 °C 16.3 °C 1023.2 hPa Calm     94% 0 mm 67 W/m2
08:49 17.3 °C 16.3 °C 1023.2 hPa Calm     94% 0 mm 65 W/m2
08:54 17.4 °C 16.4 °C 1023.2 hPa Calm     94.3% 0 mm 65 W/m2
08:59 17.5 °C 16.6 °C 1023.2 hPa Calm     94.5% 0 mm 56 W/m2
09:04 17.5 °C 16.5 °C 1023.2 hPa Calm     94% 0 mm 67 W/m2
09:09 17.5 °C 16.5 °C 1023.2 hPa Calm     93.9% 0 mm 65 W/m2
09:14 17.6 °C 16.4 °C 1023.2 hPa Calm     93% 0 mm 58 W/m2
09:19 17.6 °C 16.4 °C 1023.2 hPa Calm     93% 0 mm 67 W/m2
09:24 17.7 °C 16.5 °C 1023.6 hPa Calm     93% 0 mm 70 W/m2
09:29 17.8 °C 16.6 °C 1023.2 hPa Calm     93% 0 mm 98 W/m2
09:34 17.8 °C 16.6 °C 1023.2 hPa Calm     92.4% 0 mm 139 W/m2
09:39 18 °C 16.7 °C 1023.2 hPa Calm     92.3% 0 mm 141 W/m2
09:44 18.1 °C 16.8 °C 1023.2 hPa Calm     92% 0 mm 139 W/m2
09:46 18.2 °C 16.9 °C 1023.2 hPa Calm     92% 0 mm 118 W/m2
Hartford County Weather
Compliments of Weather Underground - 4 mb